Weather in Krasnaya Polyana

Russia / Krasnodar Krai     43°40′47″N   40°12′19″E
temp.,
°C
wind,
m/s
gust,
m/s
humid.,
%
clouds,
%
prec.,
mm/h
press.,
hPa
HPBL,
m
27 october, wed
wed2700:00−2ene32550 0.0 102912
03:00−2ne32480 0.0 102812
06:00−2ne33540 0.0 102813
09:00+6e11510 0.0 102465
12:00+8sw21500 0.0 1023338
15:00+8wsw10600 0.0 1022315
18:00+2ene22790 0.0 102312
21:00+1ene22720 0.0 102412
28 october, thu
thu2800:00+1ene22690 0.0 102512
03:000ene22580 0.0 102512
06:00−1e22530 0.0 102512
09:00+4ssw12500 0.0 1025204
12:00+6sw22560 0.0 1023455
15:00+5sw22710 0.0 1022451
18:00−1e119874 0.0 102412
21:000se129442 0.0 102476
29 october, fri
fri2900:00−1ese119116 0.0 102414
03:00−2e11770 0.0 102411
06:00−1e11692 0.0 102412
09:00+4wsw005294 0.0 1023189
12:00+6wsw21576 0.0 1021703
15:00+6wsw227061 0.0 1021547
18:00+2nne119194 0.0 102414
21:00+3ne118480 0.0 102429
30 october, sat
sat3000:00+2ese008799 0.0 102527
03:00+1ne009393 0.0 102513
06:000ne1191100 0.0 102611
09:00+4s1178100 0.0 1026254
12:00+7sw217074 0.0 1024644
15:00+7wsw116743 0.0 1023715
18:00+3ne11864 0.0 102514
21:00+3ene11781 0.0 102413
31 october, sun
sun3100:00+3ene22730 0.0 102414
03:00+4ne32692 0.0 102317
06:00+5ne325957 0.0 102218
09:00+9ne2251100 0.0 102144
12:00+12ssw1139100 0.0 1020685
15:00+12sw125399 0.0 1019718
18:00+6e1181100 0.0 102111
21:00+7e1176100 0.0 102011